CW4957 Weather Reports


Display with metric or nautical units.
time (UTC)temp
F
wind
direction
speed
MPH
gust
MPH
rain 1hr
in
rain 24hr
in
rain mn
in
humidity
%
barometer
mb
20180119073308 22 302 0.0 0.0 0.00 0.00 0.00 87 1014.1
20180119072818 22 302 0.0 0.0 0.00 0.00 0.00 87 1014.1
20180119072309 22 302 0.0 0.0 0.00 0.00 0.00 87 1013.9
20180119071801 22 302 0.0 0.0 0.00 0.00 0.00 87 1013.9
20180119071309 22 302 0.0 0.0 0.00 0.00 0.00 87 1013.9
20180119070802 22 302 0.0 0.0 0.00 0.00 0.00 87 1014.0
20180119070301 22 302 0.0 0.0 0.00 0.00 0.00 86 1014.0
20180119065810 22 302 0.0 0.0 0.00 0.00 0.00 86 1014.0
20180119065320 22 302 0.0 0.0 0.00 0.00 0.00 86 1014.1
20180119064828 22 302 0.0 0.0 0.00 0.00 0.00 86 1014.1
20180119064341 22 302 0.0 0.0 0.00 0.00 0.00 85 1014.1
20180119063808 22 302 0.0 0.0 0.00 0.00 0.00 85 1014.1
20180119063303 22 302 0.0 0.0 0.00 0.00 0.00 85 1014.1
20180119062810 22 302 0.0 0.0 0.00 0.00 0.00 85 1014.1
20180119062319 22 302 0.0 0.0 0.00 0.00 0.00 85 1014.1
20180119061811 22 302 0.0 1.0 0.00 0.00 0.00 85 1014.1
20180119061303 22 302 0.0 1.0 0.00 0.00 0.00 85 1014.1
20180119060812 22 302 0.0 0.0 0.00 0.00 0.00 86 1014.1
20180119060310 22 302 0.0 1.0 0.00 0.00 0.00 85 1014.1
20180119055801 22 302 0.0 1.0 0.00 0.00 0.00 86 1014.1
20180119055311 22 302 0.0 2.0 0.00 0.00 0.00 86 1014.2
20180119054800 22 302 0.0 2.0 0.00 0.00 0.00 86 1014.2
20180119054315 22 302 0.0 3.0 0.00 0.00 0.00 86 1014.2
20180119053810 22 315 2.0 3.0 0.00 0.00 0.00 87 1014.2
20180119053302 21 5 1.0 3.0 0.00 0.00 0.00 88 1014.2
20180119052837 21 355 0.0 2.0 0.00 0.00 0.00 88 1014.2
20180119052306 21 355 1.0 2.0 0.00 0.00 0.00 89 1014.2
20180119051819 21 264 0.0 1.0 0.00 0.00 0.00 89 1014.2
20180119051312 21 263 0.0 0.0 0.00 0.00 0.00 89 1014.2
20180119050801 21 263 0.0 1.0 0.00 0.00 0.00 90 1014.4
20180119050303 21 263 0.0 1.0 0.00 0.00 0.00 90 1014.4
20180119045818 21 265 0.0 2.0 0.00 0.00 0.00 90 1014.4
20180119045309 20 265 1.0 2.0 0.00 0.00 0.00 90 1014.8
20180119044801 20 279 0.0 2.0 0.00 0.00 0.00 90 1014.8
20180119044314 20 355 0.0 0.0 0.00 0.00 0.00 91 1014.8
20180119043802 20 355 0.0 0.0 0.00 0.00 0.00 91 1014.7
20180119043312 20 355 0.0 0.0 0.00 0.00 0.00 91 1014.7
20180119042806 20 355 0.0 0.0 0.00 0.00 0.00 91 1014.7
20180119042318 20 355 0.0 0.0 0.00 0.00 0.00 91 1014.8
20180119041808 20 355 0.0 0.0 0.00 0.00 0.00 91 1014.8
20180119041343 20 355 0.0 0.0 0.00 0.00 0.00 91 1014.8
20180119040809 20 355 0.0 0.0 0.00 0.00 0.00 91 1015.0
20180119040307 20 355 0.0 0.0 0.00 0.00 0.00 91 1015.0
20180119035758 20 355 0.0 0.0 0.00 0.00 0.00 91 1015.0
20180119035309 20 355 0.0 0.0 0.00 0.00 0.00 91 1014.8
20180119034839 20 355 0.0 0.0 0.00 0.00 0.00 91 1014.8
20180119034310 20 355 0.0 0.0 0.00 0.00 0.00 91 1014.8
20180119033802 19 355 0.0 0.0 0.00 0.00 0.00 90 1015.1
20180119033309 19 355 0.0 0.0 0.00 0.00 0.00 91 1015.1
20180119032800 19 355 0.0 0.0 0.00 0.00 0.00 90 1015.1
20180119032313 19 355 0.0 0.0 0.00 0.00 0.00 91 1015.1
20180119031804 19 355 0.0 0.0 0.00 0.00 0.00 91 1015.1
20180119031315 19 355 0.0 0.0 0.00 0.00 0.00 90 1015.1
20180119030809 19 355 0.0 0.0 0.00 0.00 0.00 90 1015.2
20180119030304 19 355 0.0 0.0 0.00 0.00 0.00 90 1015.2
20180119025816 18 355 0.0 0.0 0.00 0.00 0.00 90 1015.2
20180119025303 18 355 0.0 0.0 0.00 0.00 0.00 90 1015.2
20180119024812 18 355 0.0 0.0 0.00 0.00 0.00 89 1015.2
20180119024303 18 355 0.0 0.0 0.00 0.00 0.00 89 1015.2
20180119023813 18 355 0.0 0.0 0.00 0.00 0.00 89 1015.1
20180119023302 18 355 0.0 0.0 0.00 0.00 0.00 88 1015.1
20180119022815 18 355 0.0 0.0 0.00 0.00 0.00 88 1015.1
20180119022307 18 355 0.0 0.0 0.00 0.00 0.00 88 1014.9
20180119021800 18 355 0.0 0.0 0.00 0.00 0.00 87 1014.9
20180119021330 18 355 0.0 0.0 0.00 0.00 0.00 87 1014.9
20180119020817 18 355 0.0 0.0 0.00 0.00 0.00 87 1014.7
20180119020315 18 355 0.0 0.0 0.00 0.00 0.00 86 1014.7
20180119015803 18 355 0.0 0.0 0.00 0.00 0.00 86 1014.7
20180119015314 18 355 0.0 0.0 0.00 0.00 0.00 85 1014.5
20180119014822 18 355 0.0 0.0 0.00 0.00 0.00 85 1014.5
20180119014304 18 355 0.0 0.0 0.00 0.00 0.00 85 1014.5
20180119013817 18 355 0.0 0.0 0.00 0.00 0.00 84 1014.1
20180119013317 18 355 0.0 0.0 0.00 0.00 0.00 84 1014.1
20180119012801 19 355 0.0 0.0 0.00 0.00 0.00 84 1014.1
20180119012309 19 355 0.0 0.0 0.00 0.00 0.00 84 1014.1
20180119011816 19 355 0.0 0.0 0.00 0.00 0.00 84 1014.1
20180119011309 19 355 0.0 0.0 0.00 0.00 0.00 84 1014.1
20180119010818 19 355 0.0 0.0 0.00 0.00 0.00 85 1014.0
20180119010318 20 355 0.0 0.0 0.00 0.00 0.00 85 1014.0
20180119005825 20 355 0.0 0.0 0.00 0.00 0.00 85 1014.0
20180119005314 20 355 0.0 0.0 0.00 0.00 0.00 85 1014.0
20180119004806 20 355 0.0 0.0 0.00 0.00 0.00 84 1014.0
20180119004334 20 355 0.0 0.0 0.00 0.00 0.00 84 1014.0
20180119003804 20 355 0.0 0.0 0.00 0.00 0.00 84 1013.6
20180119003315 20 355 0.0 0.0 0.00 0.00 0.00 84 1013.6
20180119002804 20 355 0.0 0.0 0.00 0.00 0.00 83 1013.6
20180119002316 20 355 0.0 0.0 0.00 0.00 0.00 83 1013.6
20180119001810 20 355 0.0 0.0 0.00 0.00 0.00 83 1013.6
20180119001316 21 355 0.0 0.0 0.00 0.00 0.00 82 1013.6
20180119000805 21 355 0.0 0.0 0.00 0.00 0.00 82 1013.6
20180119000259 21 355 0.0 0.0 0.00 0.00 0.00 81 1013.6
20180118235808 21 355 0.0 0.0 0.00 0.00 0.00 80 1013.6
20180118235316 21 355 0.0 0.0 0.00 0.00 0.00 80 1013.7
20180118234807 21 355 0.0 0.0 0.00 0.00 0.00 80 1013.7
20180118234313 22 355 0.0 1.0 0.00 0.00 0.00 80 1013.7
20180118233806 22 355 0.0 1.0 0.00 0.00 0.00 80 1013.6
20180118233317 22 355 0.0 1.0 0.00 0.00 0.00 80 1013.6
20180118232807 22 355 0.0 1.0 0.00 0.00 0.00 79 1013.6
20180118232339 22 355 0.0 1.0 0.00 0.00 0.00 79 1013.6
20180118231808 22 355 0.0 1.0 0.00 0.00 0.00 79 1013.6
20180118231316 23 355 0.0 1.0 0.00 0.00 0.00 79 1013.6
20180118230807 23 355 1.0 1.0 0.00 0.00 0.00 78 1013.5
20180118230329 23 355 0.0 2.0 0.00 0.00 0.00 78 1013.5
20180118225816 23 355 1.0 2.0 0.00 0.00 0.00 78 1013.5
20180118225303 23 355 0.0 2.0 0.00 0.00 0.00 77 1013.1
20180118224813 23 355 0.0 1.0 0.00 0.00 0.00 77 1013.1
20180118224302 23 355 0.0 1.0 0.00 0.00 0.00 77 1013.1
20180118223832 24 355 0.0 1.0 0.00 0.00 0.00 76 1013.0
20180118223302 24 355 0.0 2.0 0.00 0.00 0.00 76 1013.0
20180118222813 24 355 1.0 2.0 0.00 0.00 0.00 76 1013.0
20180118222306 24 355 0.0 2.0 0.00 0.00 0.00 76 1012.6
20180118221818 24 355 0.0 2.0 0.00 0.00 0.00 75 1012.6
20180118220805 24 355 1.0 2.0 0.00 0.00 0.00 75 1012.6
20180118220320 25 355 1.0 2.0 0.00 0.00 0.00 75 1012.6
20180118215828 25 355 1.0 2.0 0.00 0.01 0.00 74 1012.6
20180118215316 25 9 1.0 3.0 0.00 0.01 0.00 74 1012.5
20180118214806 25 9 2.0 3.0 0.00 0.01 0.00 73 1012.5
20180118214334 25 327 1.0 2.0 0.00 0.01 0.00 73 1012.5
20180118213801 26 327 1.0 4.0 0.00 0.01 0.00 73 1012.2
20180118213310 26 294 1.0 4.0 0.00 0.01 0.00 72 1012.2
20180118212822 26 275 2.0 3.0 0.00 0.01 0.00 73 1012.2
20180118212308 26 355 1.0 4.0 0.00 0.01 0.00 71 1012.0
20180118211811 26 5 1.0 5.0 0.00 0.01 0.00 71 1012.0
20180118211317 27 5 1.0 3.0 0.00 0.01 0.00 71 1012.0
20180118210806 27 53 1.0 3.0 0.00 0.01 0.00 71 1011.9
20180118210259 27 337 2.0 5.0 0.00 0.01 0.00 71 1011.9
20180118205806 27 321 2.0 5.0 0.00 0.01 0.00 70 1011.9
20180118205315 28 338 2.0 4.0 0.00 0.01 0.00 71 1011.8
20180118204814 28 11 1.0 5.0 0.00 0.01 0.00 71 1011.8
20180118204324 28 355 1.0 6.0 0.00 0.01 0.00 71 1011.8
20180118203804 28 283 3.0 6.0 0.00 0.01 0.00 71 1011.8
20180118203314 28 267 1.0 3.0 0.00 0.01 0.00 70 1011.8
20180118202809 28 5 2.0 7.0 0.00 0.01 0.00 71 1011.8
20180118202300 29 289 1.0 6.0 0.00 0.01 0.00 70 1011.9
20180118201812 29 28 2.0 5.0 0.00 0.01 0.00 70 1011.9
20180118201306 29 348 2.0 5.0 0.00 0.01 0.00 69 1011.9
20180118200801 29 355 2.0 5.0 0.00 0.01 0.00 70 1011.7
20180118200300 29 252 1.0 4.0 0.00 0.01 0.00 70 1011.7
20180118195833 29 355 2.0 4.0 0.00 0.01 0.00 70 1011.7
20180118195304 29 244 2.0 5.0 0.00 0.01 0.00 72 1011.6
20180118194810 29 240 2.0 5.0 0.00 0.01 0.00 72 1011.6
20180118194301 29 360 2.0 6.0 0.00 0.01 0.00 71 1011.6
20180118193837 29 35 2.0 6.0 0.00 0.01 0.00 71 1011.6
20180118193303 30 325 2.0 5.0 0.00 0.01 0.00 73 1011.6
20180118192812 30 202 2.0 5.0 0.00 0.01 0.00 73 1011.6
20180118192323 30 119 0.0 3.0 0.00 0.01 0.00 71 1011.5
20180118191804 29 119 1.0 4.0 0.00 0.01 0.00 74 1011.5
20180118191312 30 107 2.0 4.0 0.00 0.01 0.00 76 1011.5
20180118190803 30 107 1.0 2.0 0.00 0.01 0.00 74 1011.9
20180118190304 29 107 1.0 2.0 0.00 0.01 0.00 73 1011.9
20180118185816 29 107 1.0 3.0 0.00 0.03 0.00 73 1011.9
20180118185307 28 107 1.0 3.0 0.00 0.03 0.00 76 1012.0
20180118184801 28 107 2.0 4.0 0.00 0.03 0.00 76 1012.0
20180118184332 28 76 2.0 4.0 0.00 0.03 0.00 76 1012.0
20180118183808 28 118 2.0 4.0 0.00 0.03 0.00 75 1012.0
20180118183318 28 114 2.0 4.0 0.00 0.03 0.00 77 1012.0
20180118182826 28 117 2.0 4.0 0.00 0.03 0.00 76 1012.0
20180118182316 27 116 1.0 4.0 0.00 0.03 0.00 78 1012.3
20180118181827 27 86 2.0 4.0 0.00 0.03 0.00 78 1012.3
20180118181300 27 103 2.0 4.0 0.00 0.03 0.00 79 1012.3
20180118180809 27 284 1.0 3.0 0.00 0.03 0.00 79 1012.6
20180118180307 27 284 1.0 3.0 0.00 0.03 0.00 79 1012.6
20180118175823 26 340 1.0 3.0 0.00 0.06 0.00 80 1012.6
20180118175311 26 202 2.0 3.0 0.00 0.06 0.00 81 1013.0
20180118174759 26 129 1.0 2.0 0.00 0.06 0.00 81 1013.0
20180118174324 26 126 1.0 3.0 0.00 0.06 0.00 80 1013.0
20180118173834 25 126 2.0 3.0 0.00 0.06 0.00 80 1013.5
20180118173302 25 126 2.0 3.0 0.00 0.06 0.00 79 1013.5
20180118172813 25 167 1.0 2.0 0.00 0.06 0.00 80 1013.5
20180118172305 25 143 1.0 2.0 0.00 0.06 0.00 79 1013.9
20180118171814 25 143 1.0 3.0 0.00 0.06 0.00 80 1013.9
20180118171309 25 127 0.0 3.0 0.00 0.06 0.00 80 1013.9
20180118170801 25 122 1.0 3.0 0.00 0.06 0.00 79 1014.2
20180118170315 24 124 1.0 2.0 0.00 0.06 0.00 81 1014.2
20180118165804 24 121 1.0 4.0 0.00 0.07 0.00 81 1014.2
20180118165308 24 117 2.0 4.0 0.00 0.07 0.00 82 1014.5
20180118164801 24 216 0.0 3.0 0.00 0.07 0.00 83 1014.5
20180118164333 23 216 1.0 3.0 0.00 0.07 0.00 84 1014.5
20180118163804 23 220 1.0 2.0 0.00 0.07 0.00 84 1014.7
20180118163317 23 220 0.0 4.0 0.00 0.07 0.00 85 1014.7
20180118162829 23 220 2.0 4.0 0.00 0.07 0.00 86 1014.7
20180118162300 22 90 1.0 3.0 0.00 0.07 0.00 87 1015.1
20180118161812 22 107 1.0 3.0 0.00 0.07 0.00 88 1015.1
20180118161325 22 48 2.0 3.0 0.00 0.07 0.00 88 1015.1
20180118160814 21 34 1.0 3.0 0.00 0.07 0.00 90 1015.2
20180118160311 21 103 1.0 2.0 0.00 0.07 0.00 92 1015.2
20180118155826 21 109 1.0 3.0 0.00 0.08 0.00 92 1015.2
20180118155309 20 111 0.0 3.0 0.00 0.08 0.00 92 1015.5
20180118154833 20 97 1.0 2.0 0.00 0.08 0.00 93 1015.5
20180118154304 19 110 1.0 3.0 0.00 0.08 0.00 94 1015.5
20180118153815 19 92 1.0 2.0 0.00 0.08 0.00 93 1015.6
20180118153307 18 37 1.0 2.0 0.00 0.08 0.00 93 1015.6
20180118152810 18 37 0.0 2.0 0.00 0.08 0.00 93 1015.6
20180118152304 17 37 1.0 2.0 0.00 0.08 0.00 94 1015.5
20180118151756 16 37 1.0 2.0 0.00 0.08 0.00 94 1015.5
20180118151311 16 37 1.0 2.0 0.00 0.08 0.00 94 1015.5
20180118150801 15 37 1.0 2.0 0.00 0.08 0.00 94 1015.5
20180118150313 14 37 0.0 1.0 0.00 0.08 0.00 93 1015.5
20180118145804 13 37 0.0 1.0 0.00 0.08 0.00 93 1015.5
20180118145256 13 37 0.0 1.0 0.00 0.08 0.00 93 1015.7
20180118144846 12 37 0.0 0.0 0.00 0.08 0.00 93 1015.7
20180118144300 12 37 0.0 1.0 0.00 0.08 0.00 93 1015.7
20180118143813 12 37 0.0 1.0 0.00 0.08 0.00 93 1015.7
20180118143309 11 37 0.0 1.0 0.00 0.08 0.00 93 1015.7
20180118142803 11 37 0.0 1.0 0.00 0.08 0.00 92 1015.7
20180118142312 11 37 0.0 1.0 0.00 0.08 0.00 92 1015.7
20180118141807 10 37 0.0 0.0 0.00 0.08 0.00 92 1015.7
20180118141336 10 37 0.0 1.0 0.00 0.08 0.00 92 1015.7
20180118140806 9 37 0.0 1.0 0.00 0.08 0.00 91 1015.7
20180118140300 9 37 0.0 0.0 0.00 0.08 0.00 91 1015.7
20180118135808 9 37 0.0 0.0 0.00 0.09 0.00 91 1015.7
20180118135308 9 37 0.0 0.0 0.00 0.09 0.00 91 1015.5
20180118134759 8 37 0.0 0.0 0.00 0.09 0.00 90 1015.5
20180118134334 8 37 0.0 0.0 0.00 0.09 0.00 90 1015.5
20180118133805 8 37 0.0 0.0 0.00 0.09 0.00 90 1015.2
20180118133334 8 37 0.0 0.0 0.00 0.09 0.00 90 1015.2
20180118132757 8 37 0.0 1.0 0.00 0.09 0.00 90 1015.2
20180118132311 8 37 0.0 0.0 0.00 0.09 0.00 90 1015.2
20180118131759 8 37 0.0 1.0 0.00 0.09 0.00 90 1015.2
20180118131307 8 37 0.0 1.0 0.00 0.09 0.00 90 1015.2
20180118130822 8 37 0.0 0.0 0.00 0.09 0.00 90 1015.2
20180118130258 8 37 0.0 0.0 0.00 0.09 0.00 90 1015.2
20180118125815 8 37 0.0 0.0 0.00 0.09 0.00 90 1015.2
20180118125338 8 37 0.0 0.0 0.00 0.09 0.00 90 1015.2
20180118124825 8 37 0.0 0.0 0.00 0.09 0.00 90 1015.2
20180118124313 8 37 0.0 2.0 0.00 0.09 0.00 90 1015.2
20180118123805 8 37 0.0 2.0 0.00 0.09 0.00 90 1015.3
20180118123308 8 37 1.0 2.0 0.00 0.09 0.00 90 1015.3
20180118122808 8 37 0.0 0.0 0.00 0.09 0.00 90 1015.3
20180118122259 8 37 0.0 0.0 0.00 0.09 0.00 90 1015.2
20180118121811 8 37 0.0 0.0 0.00 0.09 0.00 90 1015.2
20180118121258 8 37 0.0 0.0 0.00 0.09 0.00 90 1015.2